Powrót do katalogu

CZ-6A DEB

AktywnySSO
NORAD 55199·DEBRIS·🇨🇳 China

Wystrzelony Nov 11, 2022 z Taiyuan Satellite Launch Center

Loading…

Następne Przeloty (najbliższe 24 godziny)

TLE

ŚwieżeSource: Space-Track

Epoka: Sep 14, 2026, 11:30 UTC

1 55199U 22151VQ  26257.47949550  .00001887  00000-0  86050-3 0  9991
2 55199  98.8081 267.7419 0044329  63.2262 297.3441 14.22295502193267

Śledź CZ-6A DEB w czasie rzeczywistym z AllMySat

Download on the App Store